Flag for Canada Weather past 2 weeks in Trois-Rivieres, Quebec, Canada

Now
19 °F

Cold.


Feels Like: 13 °F
Forecast: 11 / 23 °F
Wind: 5 mph from Northeast

Location: Trois Rivieres

Current Time: Dec 22, 2014 at 3:11:38 PM

Latest Report: Dec 22, 2014 at 2:00 PM


Visibility: N/A

Pressure: 30.41 "Hg

Humidity: 85%

Dew point: 16 °F

Location of Trois-RivieresLocation

Historic Weather in Trois-Rivieres — Graph

°F

Trois-Rivieres temperature yesterday

Maximum temperature yesterday: 19 °F (at 2:00 PM)
Minimum temperature yesterday: 15 °F (at 12:00 AM)
Average temperature yesterday: 17 °F

Past Weeks' High & Low Weather Summary

 TemperatureHumidityPressure
High35 °F (Dec 11, 1:00 PM)100% (Dec 9, 2:00 PM)30.86 "Hg (Dec 9, 2:00 PM)
Low-1 °F (Dec 8, 6:00 AM)44% (Dec 7, 2:00 PM)29.60 "Hg (Dec 11, 12:00 PM)
Average24 °F90%30.12 "Hg
* Reported Dec 7 2:00 PM — Dec 22 2:00 PM, Trois-Rivieres, Weather by CustomWeather, © 2014

Note: Actual official high and low records may vary slightly from our data, if they occured in-between our weather recording intervals... More about our weather records

Advertising

Trois-Rivieres weather history for previous 24 hours

 ConditionsComfort  
Time TempWeatherWind HumidityBarometerVisibility
2:00 PM
Dec 22
19 °FCold.5 mph85%30.41 "HgN/A
1:00 PM19 °FCold.6 mph84%30.41 "HgN/A
12:00 PM18 °FCold.6 mph83%30.42 "HgN/A
11:00 AM17 °FCold.6 mph90%30.45 "HgN/A
10:00 AM17 °FCold.6 mph87%30.47 "HgN/A
9:00 AM16 °FCold.7 mph87%30.46 "HgN/A
8:00 AM16 °FCold.7 mph87%30.46 "HgN/A
7:00 AM16 °FCold.6 mph87%30.46 "HgN/A
6:00 AM16 °FCold.6 mph87%30.45 "HgN/A
5:00 AM16 °FCold.6 mph87%30.43 "HgN/A
4:00 AM17 °FCold.6 mph93%30.44 "HgN/A
3:00 AM17 °FCold.6 mph86%30.45 "HgN/A
2:00 AM17 °FCold.5 mph87%30.45 "HgN/A
1:00 AM17 °FCold.2 mph87%30.44 "HgN/A
12:00 AM17 °FCold.3 mph91%30.44 "HgN/A
11:00 PM
Dec 21
17 °FCold.3 mph89%30.45 "HgN/A
10:00 PM17 °FCold.2 mph91%30.44 "HgN/A
9:00 PM17 °FCold.3 mph93%30.43 "HgN/A
8:00 PM18 °FCold.7 mph93%30.43 "HgN/A
7:00 PM17 °FCold.6 mph93%30.42 "HgN/A
6:00 PM18 °FCold.5 mph93%30.41 "HgN/A
5:00 PM18 °FCold.3 mph92%30.40 "HgN/A
4:00 PM18 °FCold.2 mph100%30.40 "HgN/A
3:00 PM18 °FCold.5 mph94%30.40 "HgN/A
Weather by CustomWeather, © 2014

See weather overviewHow to use our weather pages